Regional Weather Roundup
Issued by NWS

Home | Current Version | Previous Version | Text Only | Print | Product List | Glossary Off
Versions: 1 2 3 4 5 6 7 8 9 10 11 12 13 14 15 16 17 18 19 20 21 22 23 24 25 26 27

000
ASUS45 KCYS 030210
RWRWY

WYOMING REGIONAL WEATHER ROUNDUP
NATIONAL WEATHER SERVICE CHEYENNE WY
800 PM MDT MON MAY 02 2016

NOTE:  "FAIR" INDICATES FEW OR NO CLOUDS BELOW 12,000 FEET
WITH NO SIGNIFICANT WEATHER AND/OR OBSTRUCTIONS TO VISIBILITY.

WYZ001-030300-
YELLOWSTONE NATIONAL PARK

CITY           SKY/WX    TMP DP  RH WIND       PRES   REMARKS
LK YELLOWSTONE   N/A     44  25  47 CALM      30.26S
W YELLOWSTONE  NOT AVBL

$$
WYZ002>013-054>058-071-098>099-030300-
NORTHERN WYOMING

CITY           SKY/WX    TMP DP  RH WIND       PRES   REMARKS
JACKSON        CLEAR     57  21  24 W6        30.16F
CODY           FAIR      59  30  33 N9        30.15S
GREYBULL       FAIR      67  25  20 N17       30.07S
WORLAND        FAIR      61  31  32 S3        30.09F
SHERIDAN       FAIR      54  39  57 NW8       30.12S
BUFFALO          N/A    N/A N/A N/A MISG      30.15R
GILLETTE       FAIR      50  36  58 NW7       30.11S
HULETT         MOCLDY    55  36  47 NW6       30.09R
NEWCASTLE      FAIR      55  30  38 NW15G22   30.07S

$$
WYZ014>020-022>026-101>103-030300-
CENTRAL WYOMING

CITY           SKY/WX    TMP DP  RH WIND       PRES   REMARKS
BIG PINEY      FAIR      54  14  20 S6        30.20S
PINEDALE       FAIR      54  10  17 W3        30.20R
DUBOIS         FAIR      52  16  24 SE12      30.20R
LANDER         FAIR      53  28  38 SW7       30.15S
RIVERTON       FAIR      58  34  40 E5        30.17R
CASPER         FAIR      47  35  63 N8        30.15R
DOUGLAS        FAIR      53  30  41 N15       30.12R

$$
WYZ021-027>030-104>119-030300-
SOUTHERN WYOMING

CITY           SKY/WX    TMP DP  RH WIND       PRES   REMARKS
EVANSTON       FAIR      55  11  17 N5        30.22S
KEMMERER         N/A     52  18  25 W7        30.23R
FORT BRIDGER   CLEAR     54  21  28 SE5       30.25S
ROCK SPRINGS   NOT AVBL
DIXON          FAIR      53  17  24 NW7       30.21S
RAWLINS        FAIR      46  19  34 NW9       30.19S
SARATOGA       FAIR      43  21  42 W9        30.19F
LARAMIE        FAIR      38  25  59 NW9       30.17R WCI  31
CHEYENNE       FAIR      49  25  39 NW9       30.12R
TORRINGTON     FAIR      56  32  40 N12       30.04R
PINE BLUFFS    FAIR      50  30  46 NW9       30.09R

$$




USA.gov is the U.S. government's official web portal to all federal, state and local government web resources and services.